[[{"header":{"parameterUnit":"m.s-1","parameterCategory":1,"la1":30.2991,"la2":30.254,"lo1":-89.0895,"lo2":-89.0444,"dy":0.0017,"dx":0.0017,"nx":28,"ny":28,"refTime":"2023-07-31T09:00:00:Z","depth":0,"parameterNumber":2,"parameterNumberName":"U-component_of_WINDS"},"data":[0,0,0,0,0,0,0,0,0,0,0,0,0,0,0,0,0,0,0,0,0,0,0,0,0,0,0,0,0,0,0,0,0,0,0,0,0,0,0,0,0,0,0,0,0,0,0,0,0,0,0,0,0,0,0,0,0,0,1.0355,1.0355,0,1.0331,1.0331,1.033,1.0247,1.0245,1.0244,1.0242,1.0221,1.0222,1.0223,0,0,0,0,0,0,0,0,0,0,0,0,0,1.0332,1.0333,1.0355,1.0355,1.0354,1.0331,1.0331,1.033,1.0248,1.0245,1.0243,1.0241,1.0221,1.0222,1.0223,0,0,0,0,0,0,0,0,0,0,0,0,0,1.0329,1.0334,1.0355,1.031,1.0306,1.0331,1.0331,1.033,1.0248,1.0245,1.0242,1.024,1.022,1.0222,1.0224,1.0291,0,0,1.0229,1.023,0,0,0,0,0,0,0,0,1.0329,1.033,1.0317,1.0313,1.0309,1.0289,1.0315,1.0317,1.0249,1.027,1.0242,1.0238,1.0246,1.0246,1.0247,1.029,1.0289,1.0229,1.023,1.0231,1.0232,0,0,0,0,0,0,0,1.033,1.033,1.0345,1.0317,1.0312,1.0292,1.0289,1.0315,1.0275,1.0268,1.0262,1.026,1.0243,1.0246,1.0246,1.0289,1.0229,1.0231,1.0232,1.0233,1.0386,1.0389,0,0,0,0,0,0,1.0336,1.0331,1.0346,1.0345,1.0312,1.0295,1.0291,1.0298,1.0274,1.0267,1.0263,1.0256,1.0244,1.0244,1.0245,1.0323,1.0231,1.0233,1.0234,1.0383,1.0387,1.039,0,0,0,0,0,0,1.0336,1.0338,1.0347,1.0336,1.0336,1.0298,1.0307,1.0299,1.0302,1.027,1.0262,1.0272,1.0242,1.0243,1.028,1.0321,1.0234,1.0235,1.0379,1.0384,1.0388,1.0479,0,0,0,0,0,0,1.0335,1.0338,1.0363,1.0337,1.0337,1.0382,1.031,1.0301,1.0305,1.0296,1.0277,1.0271,1.024,1.0278,1.0282,1.0322,1.0237,1.0376,1.0381,1.0387,1.0472,1.0486,1.0498,0,0,0,0,0,1.0335,1.039,1.0365,1.0367,1.0367,1.0384,1.0384,1.0346,1.0308,1.0333,1.0312,1.0272,1.0316,1.0282,1.0286,1.0327,1.0373,1.038,1.0386,1.0466,1.0483,1.0497,0,0,0,0,0,0,1.0424,1.0386,1.0357,1.0406,1.0399,1.037,1.0401,1.0365,1.0369,1.0362,1.0315,1.0311,1.0356,1.0345,1.0309,1.0391,1.0337,1.0345,1.0397,1.0413,1.0425,1.0428,1.0238,0,0,0,0,0,1.0448,1.0465,1.0432,1.0478,1.0476,1.0439,1.0445,1.0416,1.0407,1.0404,1.0386,1.038,1.0392,1.0402,1.0411,1.047,1.0465,1.05,1.0513,1.0523,1.0531,1.0561,1.0577,1.0412,1.0412,1.0412,0,0,1.0501,1.0482,1.0496,1.0495,1.0486,1.0505,1.0437,1.046,1.0474,1.0408,1.0442,1.0429,1.0419,1.0467,1.0487,1.046,1.0575,1.0532,1.0541,1.0542,1.057,1.0585,1.0599,1.0416,1.0416,1.0415,0,0,1.0606,1.0593,1.063,1.0622,1.0609,1.0584,1.0593,1.0569,1.0557,1.059,1.0541,1.0557,1.058,1.0574,1.0575,1.0677,1.064,1.0681,1.0749,1.0779,1.0792,1.0803,1.084,1.0854,1.0689,1.0689,1.0689,0,1.0674,1.0699,1.0655,1.068,1.0682,1.0621,1.0659,1.0654,1.0645,1.0648,1.0616,1.0642,1.0631,1.0677,1.0702,1.0704,1.0714,1.0684,1.0793,1.0804,1.0814,1.0849,1.0863,1.0694,1.0694,1.0693,1.0693,0,1.0782,1.0801,1.0832,1.0824,1.0828,1.086,1.0822,1.0832,1.0802,1.0781,1.0816,1.08,1.0805,1.0814,1.0786,1.0856,1.0839,1.0801,1.0746,1.0836,1.0868,1.0881,1.0702,1.07,1.0698,1.0697,0,0,1.0945,1.0909,1.0922,1.0917,1.0897,1.0911,1.094,1.0944,1.0954,1.0949,1.0973,1.0993,1.0957,1.0958,1.0928,1.0955,1.1037,1.0913,1.0912,1.0938,1.1114,1.1144,1.116,1.1012,1.1014,1.1016,1.1116,0,1.1045,1.1092,1.1052,1.1107,1.1123,1.1065,1.1091,1.1082,1.1063,1.1075,1.1053,1.1068,1.102,1.102,1.1043,1.1022,1.1072,1.1014,1.1035,1.1036,1.104,1.1177,1.1208,1.1303,1.1128,1.113,1.1131,0,1.1169,1.1168,1.1224,1.12,1.1205,1.1229,1.1229,1.1241,1.1229,1.1213,1.1214,1.1177,1.1204,1.1149,1.1188,1.1149,1.1155,1.1146,1.1149,1.115,1.109,1.1183,1.1332,1.1347,1.115,1.1149,1.1148,0,1.1283,1.1296,1.1331,1.1328,1.1301,1.1319,1.1308,1.1294,1.1298,1.1299,1.1301,1.1305,1.1308,1.1312,1.1278,1.1241,1.1321,1.1263,1.131,1.1311,1.133,1.133,1.1484,1.1332,1.1332,1.1332,1.1332,0,1.14,1.1437,1.1381,1.1403,1.1443,1.1397,1.1438,1.1421,1.1409,1.1427,1.1377,1.1396,1.1349,1.1363,1.1336,1.1372,1.1373,1.1362,1.1355,1.1367,1.1369,1.1372,1.1365,1.1336,1.1335,1.1334,1.1334,0,1.1534,1.1499,1.1533,1.1503,1.1496,1.1527,1.1502,1.1522,1.1498,1.1522,1.1525,1.1489,1.1502,1.1468,1.1477,1.1459,1.1511,1.1492,1.1514,1.1509,1.1558,1.1555,1.1721,1.174,1.1575,1.1577,1.1578,0,1.1612,1.1639,1.1611,1.1619,1.1611,1.1624,1.1628,1.1584,1.159,1.1579,1.16,1.1609,1.1614,1.1639,1.1614,1.1621,1.1603,1.166,1.1604,1.1615,1.1605,1.1604,1.1607,1.1673,1.1675,1.1676,1.1678,0,1.1754,1.1735,1.1741,1.1742,1.1748,1.1746,1.1742,1.1751,1.1704,1.1714,1.1726,1.173,1.1738,1.1748,1.1749,1.1739,1.1702,1.1695,1.1707,1.1721,1.1733,1.1728,1.1548,1.1692,1.1691,1.169,1.1689,1.1688,1.1863,1.1884,1.1868,1.1877,1.1868,1.1865,1.1881,1.1859,1.1868,1.187,1.1844,1.1862,1.185,1.1847,1.1841,1.1855,1.1829,1.1845,1.185,1.1855,1.1863,1.1729,1.1855,1.1855,1.1854,1.1854,1.1853,0,1.2004,1.199,1.1998,1.1992,1.2,1.1961,1.1954,1.1963,1.1979,1.197,1.1975,1.199,1.1999,1.1975,1.198,1.1997,1.198,1.2,1.1999,1.1998,1.1886,1.1876,1.2014,1.2014,1.2014,1.2014,1.2014,1.2014,1.2078,1.2111,1.209,1.2118,1.2104,1.212,1.212,1.2117,1.2109,1.2127,1.2134,1.2117,1.2102,1.2106,1.2113,1.2105,1.2111,1.2138,1.2125,1.2021,1.2005,1.1991,1.1981,1.2139,1.2139,1.2235,1.2236,1.2237]},{"header":{"parameterUnit":"m.s-1","parameterCategory":1,"la1":30.2991,"la2":30.254,"lo1":-89.0895,"lo2":-89.0444,"dy":0.0017,"dx":0.0017,"nx":28,"ny":28,"refTime":"2023-07-31T09:00:00:Z","depth":0,"parameterNumber":3,"parameterNumberName":"V-component_of_WINDS"},"data":[0,0,0,0,0,0,0,0,0,0,0,0,0,0,0,0,0,0,0,0,0,0,0,0,0,0,0,0,0,0,0,0,0,0,0,0,0,0,0,0,0,0,0,0,0,0,0,0,0,0,0,0,0,0,0,0,0,0,-0.8338,-0.8338,0,-0.829,-0.829,-0.8289,-0.8252,-0.8252,-0.8251,-0.8251,-0.82,-0.8199,-0.8198,0,0,0,0,0,0,0,0,0,0,0,0,0,-0.8398,-0.8397,-0.8338,-0.8338,-0.8337,-0.829,-0.829,-0.8289,-0.8252,-0.8252,-0.8251,-0.8251,-0.8201,-0.82,-0.8198,0,0,0,0,0,0,0,0,0,0,0,0,0,-0.8363,-0.8396,-0.8339,-0.8313,-0.8311,-0.829,-0.8289,-0.8289,-0.8252,-0.8252,-0.8251,-0.8251,-0.8201,-0.82,-0.8198,-0.8199,0,0,-0.8193,-0.8193,0,0,0,0,0,0,0,0,-0.8365,-0.8361,-0.8318,-0.8315,-0.8312,-0.8277,-0.8292,-0.8259,-0.8252,-0.8274,-0.8251,-0.8251,-0.8226,-0.8223,-0.8215,-0.8196,-0.8194,-0.8193,-0.8192,-0.8192,-0.8191,0,0,0,0,0,0,0,-0.8367,-0.8363,-0.8319,-0.8317,-0.8313,-0.8304,-0.8298,-0.8285,-0.8254,-0.8272,-0.827,-0.8264,-0.8224,-0.8216,-0.8213,-0.8194,-0.8193,-0.8192,-0.8191,-0.819,-0.8174,-0.8174,0,0,0,0,0,0,-0.8374,-0.8365,-0.8321,-0.8318,-0.8338,-0.8303,-0.8297,-0.8288,-0.8254,-0.8248,-0.8265,-0.8263,-0.8219,-0.8215,-0.8211,-0.821,-0.8192,-0.819,-0.8189,-0.8173,-0.8174,-0.8174,0,0,0,0,0,0,-0.8375,-0.837,-0.8323,-0.8341,-0.8334,-0.8303,-0.8293,-0.8288,-0.8279,-0.8248,-0.8242,-0.8262,-0.8218,-0.8213,-0.8202,-0.8207,-0.819,-0.8188,-0.8172,-0.8173,-0.8174,-0.8207,0,0,0,0,0,0,-0.8377,-0.8371,-0.8371,-0.8341,-0.8333,-0.8315,-0.8294,-0.8287,-0.8277,-0.8274,-0.8244,-0.8239,-0.8218,-0.8205,-0.8201,-0.8205,-0.8187,-0.8172,-0.8173,-0.8174,-0.8205,-0.8209,-0.8212,0,0,0,0,0,-0.8379,-0.8382,-0.8371,-0.8366,-0.8333,-0.8316,-0.8311,-0.8287,-0.8278,-0.8277,-0.8257,-0.824,-0.8208,-0.8204,-0.8199,-0.8203,-0.8171,-0.8173,-0.8174,-0.8204,-0.8208,-0.8212,0,0,0,0,0,0,-0.8413,-0.8378,-0.8365,-0.8359,-0.834,-0.8309,-0.8308,-0.8292,-0.8276,-0.8274,-0.8245,-0.8238,-0.823,-0.8215,-0.8212,-0.8202,-0.8187,-0.8187,-0.8212,-0.8216,-0.8219,-0.8223,-0.8186,0,0,0,0,0,-0.842,-0.841,-0.8379,-0.8376,-0.8367,-0.834,-0.8331,-0.8314,-0.8294,-0.8286,-0.8265,-0.8246,-0.8232,-0.8223,-0.8208,-0.8203,-0.8196,-0.8203,-0.8206,-0.8209,-0.821,-0.8206,-0.8209,-0.8178,-0.8178,-0.8178,0,0,-0.8434,-0.8413,-0.8408,-0.8382,-0.8366,-0.8356,-0.8333,-0.8323,-0.8315,-0.8284,-0.8273,-0.8257,-0.8233,-0.8226,-0.8221,-0.8213,-0.8217,-0.8211,-0.8213,-0.8212,-0.8208,-0.8211,-0.8213,-0.8178,-0.8178,-0.8178,0,0,-0.8454,-0.8437,-0.8433,-0.8417,-0.8394,-0.8375,-0.8374,-0.8345,-0.8334,-0.8322,-0.8299,-0.8288,-0.8264,-0.8249,-0.8237,-0.8252,-0.8235,-0.8247,-0.8264,-0.8261,-0.8264,-0.8266,-0.8271,-0.8273,-0.8248,-0.8248,-0.8248,0,-0.8474,-0.8458,-0.8432,-0.8424,-0.8413,-0.8385,-0.8381,-0.8367,-0.8339,-0.8332,-0.8323,-0.8293,-0.8275,-0.8263,-0.8267,-0.8258,-0.8256,-0.8251,-0.8265,-0.8267,-0.8269,-0.8273,-0.8275,-0.825,-0.825,-0.8249,-0.8249,0,-0.8483,-0.8472,-0.8472,-0.8447,-0.8435,-0.8429,-0.8402,-0.8394,-0.8378,-0.8361,-0.8349,-0.8327,-0.8307,-0.8303,-0.8287,-0.8289,-0.8284,-0.8271,-0.8256,-0.8274,-0.8278,-0.8279,-0.8252,-0.8252,-0.8251,-0.8251,0,0,-0.8523,-0.8485,-0.8485,-0.8473,-0.8445,-0.8436,-0.8428,-0.8409,-0.8402,-0.8384,-0.8377,-0.8357,-0.8344,-0.8332,-0.8314,-0.8311,-0.8324,-0.8298,-0.8297,-0.8304,-0.8325,-0.8335,-0.8338,-0.8312,-0.8313,-0.8313,-0.8327,0,-0.8539,-0.8524,-0.8501,-0.8493,-0.8483,-0.8457,-0.845,-0.8431,-0.8415,-0.8403,-0.8384,-0.8371,-0.8355,-0.8347,-0.8343,-0.8323,-0.8328,-0.8322,-0.8305,-0.8305,-0.8312,-0.834,-0.8351,-0.8365,-0.8328,-0.8328,-0.8328,0,-0.8555,-0.8539,-0.8531,-0.8504,-0.8498,-0.8493,-0.8473,-0.8463,-0.8441,-0.8429,-0.8415,-0.8396,-0.8386,-0.8372,-0.8358,-0.8354,-0.8346,-0.8335,-0.8335,-0.8333,-0.8318,-0.8338,-0.8369,-0.8371,-0.833,-0.833,-0.833,0,-0.8586,-0.8562,-0.8554,-0.8545,-0.8513,-0.8509,-0.8496,-0.8474,-0.8464,-0.8447,-0.844,-0.8422,-0.8412,-0.8399,-0.8375,-0.8367,-0.8363,-0.8347,-0.8353,-0.8353,-0.8353,-0.8354,-0.8383,-0.8347,-0.8347,-0.8347,-0.8347,0,-0.8606,-0.8602,-0.8567,-0.8562,-0.8557,-0.853,-0.8525,-0.8509,-0.849,-0.8481,-0.8457,-0.8449,-0.8418,-0.8406,-0.8388,-0.8379,-0.8374,-0.8364,-0.8359,-0.8367,-0.8368,-0.8361,-0.836,-0.8348,-0.8348,-0.8348,-0.8348,0,-0.8639,-0.8616,-0.8605,-0.8576,-0.8569,-0.8566,-0.8541,-0.8535,-0.8517,-0.8506,-0.8501,-0.8473,-0.8458,-0.8433,-0.841,-0.8398,-0.8392,-0.8384,-0.84,-0.8397,-0.8404,-0.8404,-0.843,-0.8432,-0.8395,-0.8396,-0.8396,0,-0.8654,-0.865,-0.8621,-0.8613,-0.8601,-0.8589,-0.8579,-0.8553,-0.8543,-0.8519,-0.8516,-0.8499,-0.8484,-0.8462,-0.8439,-0.8421,-0.8412,-0.8423,-0.841,-0.8417,-0.8413,-0.8414,-0.8413,-0.8426,-0.8427,-0.8427,-0.8427,0,-0.8682,-0.8671,-0.8658,-0.8641,-0.863,-0.8615,-0.8598,-0.8594,-0.8564,-0.8554,-0.8539,-0.8527,-0.8505,-0.8488,-0.8468,-0.8453,-0.8435,-0.8432,-0.8432,-0.844,-0.8449,-0.8444,-0.8409,-0.8431,-0.8431,-0.8431,-0.843,-0.843,-0.8707,-0.8702,-0.8681,-0.8667,-0.8653,-0.8638,-0.8631,-0.8612,-0.8599,-0.8579,-0.8564,-0.855,-0.8529,-0.8499,-0.8486,-0.8474,-0.8466,-0.8466,-0.8467,-0.8467,-0.847,-0.8451,-0.847,-0.847,-0.847,-0.847,-0.8469,0,-0.8734,-0.872,-0.8707,-0.8686,-0.8675,-0.8659,-0.864,-0.8632,-0.862,-0.8602,-0.8588,-0.857,-0.8554,-0.853,-0.8512,-0.8508,-0.8499,-0.8504,-0.8504,-0.8501,-0.8478,-0.848,-0.8511,-0.8511,-0.8511,-0.8511,-0.8511,-0.8511,-0.8747,-0.8739,-0.8726,-0.871,-0.8695,-0.8681,-0.8672,-0.8658,-0.8644,-0.8625,-0.8612,-0.8597,-0.8576,-0.8556,-0.8541,-0.8534,-0.8529,-0.8536,-0.8527,-0.8506,-0.8502,-0.8499,-0.85,-0.8535,-0.8535,-0.8551,-0.8551,-0.8551]}]]